Change the Weather History Date:

Tuesday, March 6, 2012

  Actual Average Record
Temperature  
Mean Temperature 47 °F 32 °F  
Max Temperature 64 °F 41 °F 72 °F (1983)
Min Temperature 30 °F 24 °F 6 °F (2007)
Degree Days  
Heating Degree Days 18 33  
Month to date heating degree days 201  
Since 1 July heating degree days 4974  
Cooling Degree Days 0 0  
Month to date cooling degree days 0  
Year to date cooling degree days 0  
Moisture  
Dew Point 30 °F    
Average Humidity 55    
Maximum Humidity 75    
Minimum Humidity 37    
Precipitation  
Precipitation 0.00 in 0.08 in 0.52 in (1963)
Month to date precipitation 0.61 0.45  
Year to date precipitation 3.69  
Sea Level Pressure  
Sea Level Pressure 30.14 in    
Wind  
Wind Speed 16 mph (South)    
Max Wind Speed 25 mph    
Max Gust Speed 35 mph    
Visibility 10 miles    
Events      
T = Trace of Precipitation, MM = Missing Value Source: NWS Daily Summary

Daily Weather History Graph

Daily Weather History Graph

Search for Another Location

Airport or City:

Trip Planner

Search our weather history database for the weather conditions in past years. The results will help you decide how hot, cold, wet, or windy it might be!

Date:

Astronomy

Mar. 06, 2012 Rise Set
Actual Time 7:08 AM EST 6:38 PM EST
Civil Twilight 6:40 AM EST 7:06 PM EST
Nautical Twilight 6:08 AM EST 7:39 PM EST
Astronomical Twilight 5:35 AM EST 8:11 PM EST
Moon 5:03 PM EST (3/6) 5:45 AM EST (3/6)
Length of Visible Light 12h 26m
Length of Day
11h 30m
Waxing Gibbous, 96% of the Moon is Illuminated
Mar 6
Waxing Gibbous
Mar 8
Full
Mar 14
Last Quarter
Mar 22
New
Mar 30
First Quarter

Hourly Weather History & Observations

Time (EST) Temp. Windchill Dew Point Humidity Pressure Visibility Wind Dir Wind Speed Gust Speed Precip Events Conditions
12:53 AM 30.9 °F 24.3 °F 21.0 °F 67% 30.35 in 10.0 mi South 6.9 mph - N/A   Mostly Cloudy
1:53 AM 30.9 °F 22.2 °F 21.9 °F 69% 30.33 in 10.0 mi South 10.4 mph - N/A   Overcast
2:53 AM 30.2 °F 21.3 °F 23.0 °F 75% 30.30 in 10.0 mi South 10.4 mph - N/A   Overcast
3:53 AM 32.0 °F 24.2 °F 23.0 °F 69% 30.31 in 10.0 mi South 9.2 mph - N/A   Overcast
4:53 AM 30.9 °F 23.5 °F 21.9 °F 69% 30.29 in 10.0 mi SSE 8.1 mph - N/A   Clear
5:53 AM 30.9 °F 22.2 °F 21.9 °F 69% 30.27 in 10.0 mi SSE 10.4 mph - N/A   Scattered Clouds
6:53 AM 30.9 °F 23.5 °F 21.9 °F 69% 30.25 in 10.0 mi SSE 8.1 mph - N/A   Clear
7:53 AM 32.0 °F 22.1 °F 23.0 °F 69% 30.25 in 10.0 mi South 13.8 mph 19.6 mph N/A   Partly Cloudy
8:53 AM 35.1 °F 25.5 °F 24.1 °F 64% 30.23 in 10.0 mi South 15.0 mph 24.2 mph N/A   Overcast
9:53 AM 37.0 °F 27.4 °F 25.0 °F 62% 30.21 in 10.0 mi South 17.3 mph 25.3 mph N/A   Overcast
10:53 AM 39.9 °F 30.2 °F 26.1 °F 58% 30.18 in 10.0 mi South 20.7 mph 32.2 mph N/A   Overcast
11:53 AM 45.0 °F 37.6 °F 30.0 °F 56% 30.15 in 10.0 mi South 17.3 mph 24.2 mph N/A   Clear
12:53 PM 51.1 °F - 33.1 °F 50% 30.12 in 10.0 mi South 20.7 mph 26.5 mph N/A   Clear
1:53 PM 55.0 °F - 35.1 °F 47% 30.07 in 10.0 mi South 20.7 mph 26.5 mph N/A   Clear
2:53 PM 59.0 °F - 37.0 °F 44% 30.03 in 10.0 mi South 24.2 mph 31.1 mph N/A   Clear
3:53 PM 62.1 °F - 37.9 °F 41% 30.01 in 10.0 mi South 24.2 mph 29.9 mph N/A   Clear
4:53 PM 64.0 °F - 37.0 °F 37% 29.99 in 10.0 mi SSW 19.6 mph 31.1 mph N/A   Clear
5:53 PM 62.6 °F - 37.4 °F 39% 29.97 in 10.0 mi South 17.3 mph 27.6 mph N/A   Clear
6:53 PM 60.1 °F - 36.0 °F 41% 29.99 in 10.0 mi SSW 20.7 mph 31.1 mph N/A   Clear
7:53 PM 57.9 °F - 36.0 °F 44% 30.00 in 10.0 mi South 21.9 mph 28.8 mph N/A   Clear
8:53 PM 57.9 °F - 36.0 °F 44% 30.01 in 10.0 mi South 19.6 mph 27.6 mph N/A   Clear
9:53 PM 55.0 °F - 36.0 °F 49% 30.04 in 10.0 mi South 12.7 mph - N/A   Clear
10:53 PM 54.0 °F - 36.0 °F 51% 30.06 in 10.0 mi South 13.8 mph - N/A   Clear
11:53 PM 54.0 °F - 34.0 °F 47% 30.06 in 10.0 mi South 13.8 mph - N/A   Clear